Page, AZ

9:07 PM MDT on April 27, 2017 (GMT -0600)
Page Municipal

Weather History for KPGA - April, 2014

Change the Weather History Date:

Saturday, April 12, 2014

  Actual Average Record
Temperature  
Mean Temperature 67 °F -  
Max Temperature 75 °F 68 °F 82 °F (1985)
Min Temperature 59 °F 44 °F 29 °F (1967)
Cooling Degree Days 2    
Growing Degree Days 17 (Base 50)    
Moisture  
Dew Point 20 °F    
Average Humidity 15    
Maximum Humidity 25    
Minimum Humidity 4    
Precipitation  
Precipitation 0.00 in - - ()
Sea Level Pressure  
Sea Level Pressure 29.60 in    
Wind  
Wind Speed 5 mph (SW)    
Max Wind Speed 16 mph    
Max Gust Speed 25 mph    
Visibility 10 miles    
Events      
Averages and records for this station are not official NWS values.
T = Trace of Precipitation, MM = Missing Value Source: NWS Daily Summary

Daily Weather History Graph

Daily Weather History Graph

Search for Another Location

Airport or City:

Trip Planner

Search our weather history database for the weather conditions in past years. The results will help you decide how hot, cold, wet, or windy it might be!

Date:

Astronomy

Apr. 12, 2014 Rise Set
Actual Time 5:55 AM MST 6:57 PM MST
Civil Twilight 5:29 AM MST 7:24 PM MST
Nautical Twilight 4:57 AM MST 7:56 PM MST
Astronomical Twilight 4:24 AM MST 8:29 PM MST
Moon 4:43 PM MST (4/12) 4:20 AM MST (4/12)
Length of Visible Light 13h 55m
Length of Day
13h 02m
Waxing Gibbous, 93% of the Moon is Illuminated
Apr 12
Waxing Gibbous
Apr 15
Full
Apr 22
Last Quarter
Apr 28
New
May 6
First Quarter

Hourly Weather History & Observations

Time (MST) Temp. Dew Point Humidity Pressure Visibility Wind Dir Wind Speed Gust Speed Precip Events Conditions
12:53 AM 69.1 °F 16.0 °F 13% 29.70 in 10.0 mi SW 6.9 mph - N/A   Clear
1:53 AM 68.0 °F 21.0 °F 17% 29.68 in 10.0 mi Variable 3.5 mph - N/A   Clear
2:53 AM 64.0 °F 18.0 °F 17% 29.68 in 10.0 mi Calm Calm - N/A   Clear
3:53 AM 62.1 °F 24.1 °F 23% 29.67 in 10.0 mi Calm Calm - N/A   Clear
4:53 AM 61.0 °F 18.0 °F 19% 29.65 in 10.0 mi Calm Calm - N/A   Scattered Clouds
5:53 AM 62.1 °F 18.0 °F 18% 29.66 in 10.0 mi Calm Calm - N/A   Partly Cloudy
6:53 AM 64.0 °F 27.0 °F 25% 29.67 in 10.0 mi South 9.2 mph - N/A   Clear
7:53 AM 66.0 °F 28.0 °F 24% 29.67 in 10.0 mi SSW 3.5 mph - N/A   Clear
8:53 AM 66.9 °F 28.0 °F 23% 29.67 in 10.0 mi Calm Calm - N/A   Clear
9:53 AM 66.9 °F 26.1 °F 21% 29.67 in 10.0 mi North 5.8 mph - N/A   Partly Cloudy
10:53 AM 72.0 °F 27.0 °F 19% 29.64 in 10.0 mi North 6.9 mph - N/A   Partly Cloudy
11:53 AM 75.9 °F 25.0 °F 15% 29.60 in 10.0 mi NNW 9.2 mph - N/A   Clear
12:53 PM 72.0 °F 25.0 °F 17% 29.60 in 10.0 mi WNW 16.1 mph 25.3 mph N/A   Clear
1:53 PM 73.9 °F 19.9 °F 13% 29.56 in 10.0 mi SW 10.4 mph - N/A   Clear
2:53 PM 75.0 °F 17.1 °F 11% 29.53 in 10.0 mi SSW 9.2 mph - N/A   Clear
3:53 PM 75.9 °F 15.1 °F 10% 29.51 in 10.0 mi SSW 6.9 mph - N/A   Clear
4:53 PM 75.0 °F 15.1 °F 10% 29.51 in 10.0 mi SW 6.9 mph - N/A   Clear
5:53 PM 73.0 °F 18.0 °F 12% 29.51 in 10.0 mi SSW 10.4 mph 23.0 mph N/A   Clear
6:53 PM 72.0 °F 18.0 °F 13% 29.51 in 10.0 mi SSW 9.2 mph 18.4 mph N/A   Clear
7:53 PM 70.0 °F 18.0 °F 14% 29.53 in 10.0 mi SSW 6.9 mph - N/A   Clear
8:53 PM 70.0 °F 16.0 °F 13% 29.54 in 10.0 mi Variable 3.5 mph - N/A   Clear
9:53 PM 69.1 °F 16.0 °F 13% 29.55 in 10.0 mi WSW 4.6 mph - N/A   Clear
10:53 PM 68.0 °F 14.0 °F 12% 29.55 in 10.0 mi WSW 5.8 mph - N/A   Clear
11:53 PM 66.9 °F 12.0 °F 12% 29.54 in 10.0 mi Variable 3.5 mph - N/A   Clear